#timestamp,LO_Frequency,Hit,StdDev 
1671418815.6,286047000.9,N
1671418835.5,286047000.7,N
1671418855.3,286047000.3,N
1671418875.2,286047000.1,N
1671418895.9,286047000.1,N
1671418915.7,286047001.9,N
1671418935.6,286047001.7,N
1671418955.4,286047001.6,N
1671418975.3,286047003.9,N
1671418995.1,286047003.8,N
1671419015.8,286047001.4,N
1671419035.7,286047001.7,N
1671419055.5,286047004.2,N
1671419075.4,286047001.7,N
1671419095.2,286047001.8,N
1671419115.0,286047001.5,N
1671419115.9,286047001.5,N
1671419135.8,286047002.2,N
1671419155.6,286047002.4,N
1671419175.4,286047002.1,N
1671419195.3,286047001.7,N
1671419215.1,286047001.9,N
1671419235.9,286047002.2,N
1671419255.7,286047000.6,N
1671419275.5,286047000.2,N
1671419295.4,286046999.2,N
1671419315.2,286046997.6,N
1671419335.0,286046996.9,N
1671419335.9,286046996.9,N
1671419355.8,286046999.0,N
1671419375.6,286047000.6,N
1671419395.5,286047000.6,N
1671419415.3,286047000.6,N
1671419435.1,286047000.1,N
1671419455.9,286047000.2,N
1671419475.7,286046999.7,N
1671419495.6,286046999.0,N
1671419515.4,286046999.6,N
1671419535.2,286046999.0,N
1671419555.1,286047000.5,N
1671419556.0,286047000.5,N
1671419575.8,286047001.0,N
1671419595.7,286047001.2,N
1671419615.5,286046998.1,N
1671419635.3,286047000.8,N
1671419655.2,286046995.1,Y
1671419675.9,286046995.8,P
1671419695.7,286046997.1,N
1671419715.6,286046996.1,N
1671419735.4,286046997.9,N
1671419755.3,286046996.9,N
1671419775.1,286046999.1,N
1671419776.0,286046999.1,N
1671419795.8,286046998.6,N
1671419815.7,286046998.9,N
1671419835.5,286047000.6,N
1671419855.3,286047001.9,N
1671419875.2,286047001.9,N
1671419895.0,286047002.2,N
1671419895.9,286047002.2,N
1671419915.8,286047002.5,N
1671419935.6,286047000.7,N
1671419955.4,286047000.9,N
1671419975.3,286047000.2,N
1671419995.1,286047001.9,N
1671420015.9,286047000.1,N
1671420035.7,286047002.0,N
1671420055.5,286047001.6,N
1671420075.4,286047002.4,N
1671420095.2,286047002.3,N
1671420115.0,286047001.9,N
1671420115.9,286047001.9,N
1671420135.8,286047000.0,N
1671420155.6,286047000.3,N
1671420175.5,286047002.1,N
1671420195.3,286047002.0,N
1671420215.1,286047002.3,N
1671420235.9,286047002.8,N
1671420255.7,286047000.1,N
1671420275.5,286047000.3,N
1671420295.4,286046998.1,N
1671420315.2,286046998.2,N
1671420335.1,286046998.3,N
1671420336.0,286046998.3,N
1671420355.8,286046998.9,N
1671420375.6,286047000.0,N
1671420395.5,286047000.2,N
1671420415.3,286047001.0,N
1671420435.1,286047000.1,N
1671420455.9,286047001.5,N
1671420475.7,286047001.5,N
1671420495.6,286047002.2,N
1671420515.4,286047002.3,N
1671420535.2,286047002.0,N
1671420555.1,286047004.4,Y
1671420556.0,286047004.4,P
1671420575.8,286047002.0,N
1671420595.6,286047001.5,N
1671420615.5,286047004.2,Y
1671420635.3,286046998.5,P
1671420655.2,286047000.7,N
1671420675.9,286046998.3,N
1671420695.7,286046998.7,N
1671420715.6,286046999.1,N
1671420735.4,286046998.4,N
1671420755.2,286046997.6,N
1671420775.1,286046997.7,N
1671420776.0,286046997.7,N
1671420795.8,286046995.3,Y
1671420815.7,286046999.3,P
1671420835.5,286046998.2,P
1671420855.3,286046999.0,N
1671420875.2,286046999.5,N
1671420895.0,286046995.7,Y
1671420895.9,286046995.7,P
1671420915.8,286046993.7,P
1671420935.6,286046996.4,N
1671420955.4,286046995.2,N
1671420975.3,286046995.2,N
1671420995.1,286046998.6,N
1671421015.8,286046998.0,N
1671421035.7,286046993.4,Y
1671421055.5,286047000.7,P
1671421075.4,286047000.6,N
1671421095.2,286047000.4,N
1671421115.0,286047000.4,N
1671421115.9,286047000.4,N
1671421135.8,286047000.0,N
1671421155.6,286047002.2,N
1671421175.4,286047002.0,N
1671421195.3,286047004.0,N
1671421215.1,286047001.8,N
1671421235.9,286047000.1,N
1671421255.7,286047002.0,N
1671421275.5,286047001.3,N
1671421295.4,286047003.7,N
1671421315.2,286047001.8,N
1671421335.0,286047001.7,N
1671421335.9,286047001.7,N
1671421355.8,286047001.6,N
1671421375.6,286047004.1,N
1671421395.5,286047005.5,Y
1671421415.3,286047003.8,P
1671421435.1,286047002.9,N
1671421455.9,286047003.5,P
1671421475.7,286047003.1,Y
1671421495.6,286047001.1,P
1671421515.4,286047002.8,P
1671421535.2,286046998.1,N
1671421555.1,286046999.8,N
1671421556.0,286046999.8,N
1671421575.8,286046999.7,N
1671421595.6,286047002.2,N
1671421615.5,286047000.2,N
1671421635.3,286047002.6,N
1671421655.2,286047001.9,N
1671421675.0,286047001.3,N
1671421675.9,286047001.3,N
1671421695.7,286047002.5,N
1671421715.6,286047001.6,N
1671421735.4,286047002.2,N
1671421755.3,286047001.6,N
1671421775.1,286047002.2,N
1671421776.0,286047002.2,N
1671421795.8,286046999.8,N
1671421815.7,286047002.3,N
1671421835.5,286047002.4,N
1671421855.3,286046999.7,N
1671421875.2,286047001.7,N
1671421895.0,286047001.4,N
1671421895.9,286047001.4,N
1671421915.8,286047002.3,N
1671421935.6,286047002.8,N
1671421955.4,286047001.9,N
1671421975.3,286047002.6,N
1671421995.1,286047002.0,N
1671422015.9,286047002.8,N
1671422035.7,286047000.5,N
1671422055.5,286047002.8,N
1671422075.4,286047001.9,N
1671422095.2,286047001.3,N
1671422115.0,286047002.5,N
1671422115.9,286047002.5,N
1671422135.8,286047002.0,N
1671422155.6,286047002.6,Y
1671422175.5,286047001.1,P
1671422195.3,286046996.7,P
1671422215.1,286046998.9,N
1671422235.9,286046999.4,N
1671422255.7,286046996.8,N
1671422275.5,286046996.6,N
1671422295.4,286046999.6,N
1671422315.2,286046999.6,N
1671422335.1,286046999.3,N
1671422336.0,286046999.3,N
1671422355.8,286046998.9,N
1671422375.6,286047001.2,N
1671422395.5,286046998.6,N
